Torna al catalogo

SL-14 R/B

AttivoPO
NORAD 15370·ROCKET BODY·🇷🇺 Russia

Lanciato Oct 18, 1984 da Plesetsk Cosmodrome

Loading…

Prossimi Passaggi (prossime 24 ore)

TLE

AggiornatoSource: Space-Track

Epoca: Sep 14, 2026, 11:25 UTC

1 15370U 84111B   26257.47594993  .00000287  00000-0  29800-4 0  9993
2 15370  82.5121  78.7761 0021457  69.4886 290.8631 14.86195640243915

Traccia SL-14 R/B in tempo reale con AllMySat

Download on the App Store